| time (UTC) | temp F | wind direction | speed knots | gust knots | rain 1hr in | rain 24hr in | rain mn in | humidity % | barometer mb |
| 20260505035057 | 67 | 0 | 0.0 | 0.0 | 0.00 | 0.00 | 0.00 | 59 | 1010.6 |
| 20260505034554 | 67 | 0 | 0.0 | 0.0 | 0.00 | 0.00 | 0.00 | 56 | 1010.5 |
| 20260505034050 | 67 | 0 | 0.0 | 0.0 | 0.00 | 0.00 | 0.00 | 56 | 1010.5 |
| 20260505033553 | 68 | 0 | 0.0 | 0.0 | 0.00 | 0.00 | 0.00 | 59 | 1010.4 |
| 20260505033053 | 68 | 0 | 0.0 | 0.0 | 0.00 | 0.00 | 0.00 | 57 | 1010.3 |
| 20260505032553 | 69 | 0 | 0.0 | 0.0 | 0.00 | 0.00 | 0.00 | 54 | 1010.3 |
| 20260505032057 | 69 | 0 | 0.0 | 0.0 | 0.00 | 0.00 | 0.00 | 55 | 1010.2 |
| 20260505031556 | 70 | 0 | 0.0 | 0.0 | 0.00 | 0.00 | 0.00 | 55 | 1010.2 |
| 20260505031054 | 70 | 0 | 0.0 | 0.0 | 0.00 | 0.00 | 0.00 | 56 | 1010.2 |
| 20260505030555 | 71 | 0 | 0.0 | 0.0 | 0.00 | 0.00 | 0.00 | 54 | 1010.0 |
| 20260505030055 | 72 | 0 | 0.0 | 0.0 | 0.00 | 0.00 | 0.00 | 51 | 1010.1 |
| 20260505025554 | 73 | 0 | 0.0 | 0.0 | 0.00 | 0.00 | 0.00 | 49 | 1009.9 |
| 20260505025054 | 73 | 0 | 0.0 | 0.9 | 0.00 | 0.00 | 0.00 | 48 | 1009.8 |
| 20260505024601 | 74 | 0 | 0.0 | 1.7 | 0.00 | 0.00 | 0.00 | 47 | 1009.8 |
| 20260505024053 | 74 | 0 | 0.0 | 5.2 | 0.00 | 0.00 | 0.00 | 49 | 1009.8 |
| 20260505023551 | 75 | 306 | 0.9 | 6.1 | 0.00 | 0.00 | 0.00 | 45 | 1009.7 |
| 20260505023054 | 75 | 273 | 0.0 | 6.1 | 0.00 | 0.00 | 0.00 | 45 | 1009.7 |
| 20260505022553 | 75 | 0 | 1.7 | 6.1 | 0.00 | 0.00 | 0.00 | 45 | 1009.7 |
| 20260505022050 | 75 | 0 | 0.0 | 5.2 | 0.00 | 0.00 | 0.00 | 45 | 1009.7 |
| 20260505021552 | 75 | 0 | 0.0 | 5.2 | 0.00 | 0.00 | 0.00 | 44 | 1009.7 |
| 20260505021049 | 76 | 224 | 0.9 | 3.5 | 0.00 | 0.00 | 0.00 | 43 | 1009.7 |
| 20260505020553 | 76 | 308 | 0.9 | 3.5 | 0.00 | 0.00 | 0.00 | 43 | 1009.7 |
| 20260505020051 | 76 | 0 | 0.0 | 1.7 | 0.00 | 0.00 | 0.00 | 42 | 1009.6 |
| 20260505015554 | 76 | 13 | 0.0 | 5.2 | 0.00 | 0.00 | 0.00 | 37 | 1009.7 |
| 20260505015055 | 77 | 345 | 0.0 | 5.2 | 0.00 | 0.00 | 0.00 | 43 | 1009.7 |
| 20260505014553 | 77 | 286 | 0.9 | 5.2 | 0.00 | 0.00 | 0.00 | 42 | 1009.6 |
| 20260505014055 | 77 | 0 | 0.0 | 4.3 | 0.00 | 0.00 | 0.00 | 42 | 1009.7 |
| 20260505013550 | 77 | 0 | 0.9 | 4.3 | 0.00 | 0.00 | 0.00 | 39 | 1009.6 |
| 20260505013107 | 78 | 304 | 0.0 | 3.5 | 0.00 | 0.00 | 0.00 | 43 | 1009.7 |
| 20260505012553 | 78 | 215 | 0.9 | 3.5 | 0.00 | 0.00 | 0.00 | 42 | 1009.6 |
| 20260505012056 | 78 | 0 | 0.9 | 5.2 | 0.00 | 0.00 | 0.00 | 36 | 1009.7 |
| 20260505011600 | 78 | 264 | 0.9 | 5.2 | 0.00 | 0.00 | 0.00 | 40 | 1009.6 |
| 20260505011054 | 78 | 263 | 0.9 | 2.6 | 0.00 | 0.00 | 0.00 | 39 | 1009.7 |
| 20260505010550 | 78 | 237 | 0.9 | 7.0 | 0.00 | 0.00 | 0.00 | 41 | 1009.7 |
| 20260505005554 | 78 | 140 | 0.0 | 6.1 | 0.00 | 0.00 | 0.00 | 41 | 1009.7 |
| 20260505005054 | 78 | 140 | 0.9 | 6.1 | 0.00 | 0.00 | 0.00 | 41 | 1009.6 |
| 20260505004555 | 78 | 212 | 2.6 | 7.0 | 0.00 | 0.00 | 0.00 | 40 | 1009.7 |
| 20260505004053 | 78 | 233 | 1.7 | 7.0 | 0.00 | 0.00 | 0.00 | 39 | 1009.7 |
| 20260505003558 | 78 | 221 | 0.9 | 6.1 | 0.00 | 0.00 | 0.00 | 39 | 1009.7 |
| 20260505003056 | 78 | 218 | 2.6 | 6.1 | 0.00 | 0.00 | 0.00 | 39 | 1009.7 |
| 20260505002553 | 78 | 205 | 0.9 | 6.1 | 0.00 | 0.00 | 0.00 | 39 | 1009.7 |
| 20260505002053 | 78 | 127 | 1.7 | 6.1 | 0.00 | 0.00 | 0.00 | 38 | 1009.7 |
| 20260505001555 | 78 | 235 | 0.9 | 7.0 | 0.00 | 0.00 | 0.00 | 38 | 1009.8 |
| 20260505001054 | 78 | 258 | 0.9 | 7.0 | 0.00 | 0.00 | 0.00 | 38 | 1009.8 |
| 20260505000550 | 79 | 219 | 1.7 | 6.1 | 0.00 | 0.00 | 0.00 | 38 | 1009.8 |
| 20260505000106 | 78 | 260 | 0.9 | 6.1 | 0.00 | 0.00 | 0.00 | 38 | 1009.8 |
| 20260504235553 | 79 | 175 | 2.6 | 7.0 | 0.00 | 0.00 | 0.00 | 37 | 1009.8 |
| 20260504235053 | 79 | 0 | 0.0 | 7.0 | 0.00 | 0.00 | 0.00 | 37 | 1009.8 |
| 20260504234556 | 79 | 166 | 2.6 | 7.0 | 0.00 | 0.00 | 0.00 | 36 | 1009.9 |
| 20260504234053 | 79 | 199 | 0.9 | 9.6 | 0.00 | 0.00 | 0.00 | 40 | 1009.9 |
| 20260504233554 | 79 | 302 | 3.5 | 9.6 | 0.00 | 0.00 | 0.00 | 37 | 1009.9 |
| 20260504233104 | 79 | 182 | 0.9 | 7.8 | 0.00 | 0.00 | 0.00 | 39 | 1010.0 |
| 20260504232554 | 79 | 0 | 2.6 | 7.8 | 0.00 | 0.00 | 0.00 | 40 | 1010.0 |
| 20260504232053 | 79 | 190 | 1.7 | 7.8 | 0.00 | 0.00 | 0.00 | 37 | 1010.0 |
| 20260504231603 | 79 | 0 | 3.5 | 7.8 | 0.00 | 0.00 | 0.00 | 39 | 1009.9 |
| 20260504231053 | 79 | 245 | 0.9 | 4.3 | 0.00 | 0.00 | 0.00 | 38 | 1010.0 |
| 20260504230556 | 79 | 121 | 0.9 | 5.2 | 0.00 | 0.00 | 0.00 | 39 | 1010.0 |
| 20260504230100 | 78 | 0 | 1.7 | 7.8 | 0.00 | 0.00 | 0.00 | 40 | 1010.0 |
| 20260504225554 | 78 | 211 | 2.6 | 7.8 | 0.00 | 0.00 | 0.00 | 39 | 1010.1 |
| 20260504225053 | 79 | 259 | 2.6 | 7.0 | 0.00 | 0.00 | 0.00 | 40 | 1010.0 |
| 20260504224559 | 78 | 255 | 1.7 | 7.0 | 0.00 | 0.00 | 0.00 | 41 | 1010.1 |
| 20260504224053 | 79 | 275 | 1.7 | 5.2 | 0.00 | 0.00 | 0.00 | 39 | 1010.1 |
| 20260504223553 | 79 | 336 | 0.9 | 6.1 | 0.00 | 0.00 | 0.00 | 40 | 1010.1 |
| 20260504223101 | 79 | 192 | 0.9 | 8.7 | 0.00 | 0.00 | 0.00 | 38 | 1010.2 |
| 20260504222550 | 79 | 205 | 0.9 | 8.7 | 0.00 | 0.00 | 0.00 | 39 | 1010.3 |
| 20260504222049 | 79 | 150 | 2.6 | 7.8 | 0.00 | 0.00 | 0.00 | 41 | 1010.4 |
| 20260504221555 | 78 | 222 | 0.9 | 7.8 | 0.00 | 0.00 | 0.00 | 40 | 1010.5 |
| 20260504221050 | 78 | 296 | 2.6 | 7.0 | 0.00 | 0.00 | 0.00 | 37 | 1010.7 |
| 20260504220553 | 78 | 181 | 0.9 | 7.8 | 0.00 | 0.00 | 0.00 | 36 | 1010.8 |
| 20260504220057 | 78 | 219 | 0.9 | 8.7 | 0.00 | 0.00 | 0.00 | 41 | 1010.8 |
| 20260504215554 | 78 | 220 | 3.5 | 8.7 | 0.00 | 0.00 | 0.00 | 37 | 1010.8 |
| 20260504215053 | 78 | 185 | 2.6 | 7.0 | 0.00 | 0.00 | 0.00 | 37 | 1010.8 |
| 20260504214607 | 78 | 271 | 2.6 | 7.8 | 0.00 | 0.00 | 0.00 | 40 | 1010.9 |
| 20260504214053 | 78 | 210 | 2.6 | 8.7 | 0.00 | 0.00 | 0.00 | 35 | 1010.9 |
| 20260504213553 | 78 | 0 | 3.5 | 8.7 | 0.00 | 0.00 | 0.00 | 39 | 1010.9 |
| 20260504213106 | 78 | 274 | 2.6 | 8.7 | 0.00 | 0.00 | 0.00 | 39 | 1010.8 |
| 20260504212552 | 78 | 231 | 1.7 | 10.4 | 0.00 | 0.00 | 0.00 | 38 | 1010.8 |
| 20260504212056 | 77 | 157 | 2.6 | 10.4 | 0.00 | 0.00 | 0.00 | 38 | 1010.9 |
| 20260504211555 | 77 | 207 | 3.5 | 10.4 | 0.00 | 0.00 | 0.00 | 38 | 1010.9 |
| 20260504211053 | 77 | 294 | 0.9 | 5.2 | 0.00 | 0.00 | 0.00 | 37 | 1010.8 |
| 20260504210556 | 77 | 226 | 1.7 | 5.2 | 0.00 | 0.00 | 0.00 | 36 | 1010.9 |
| 20260504210058 | 77 | 198 | 0.9 | 7.0 | 0.00 | 0.00 | 0.00 | 37 | 1010.9 |
| 20260504205552 | 77 | 197 | 2.6 | 7.0 | 0.00 | 0.00 | 0.00 | 40 | 1010.9 |
| 20260504205056 | 77 | 0 | 0.9 | 6.1 | 0.00 | 0.00 | 0.00 | 37 | 1010.9 |
| 20260504204555 | 76 | 263 | 0.9 | 6.1 | 0.00 | 0.00 | 0.00 | 37 | 1011.0 |
| 20260504204053 | 76 | 279 | 1.7 | 6.1 | 0.00 | 0.00 | 0.00 | 35 | 1011.0 |
| 20260504203553 | 76 | 180 | 1.7 | 6.1 | 0.00 | 0.00 | 0.00 | 37 | 1011.0 |
| 20260504203103 | 76 | 223 | 1.7 | 8.7 | 0.00 | 0.00 | 0.00 | 39 | 1011.0 |
| 20260504202552 | 76 | 199 | 2.6 | 8.7 | 0.00 | 0.00 | 0.00 | 38 | 1011.0 |
| 20260504202053 | 76 | 198 | 1.7 | 8.7 | 0.00 | 0.00 | 0.00 | 39 | 1010.9 |
| 20260504201616 | 76 | 177 | 2.6 | 8.7 | 0.00 | 0.00 | 0.00 | 38 | 1010.9 |
| 20260504201054 | 75 | 209 | 0.0 | 7.8 | 0.00 | 0.00 | 0.00 | 44 | 1011.0 |
| 20260504200553 | 75 | 201 | 1.7 | 7.8 | 0.00 | 0.00 | 0.00 | 43 | 1011.0 |
| 20260504200054 | 75 | 0 | 1.7 | 7.0 | 0.00 | 0.00 | 0.00 | 42 | 1011.1 |
| 20260504195552 | 75 | 191 | 1.7 | 7.8 | 0.00 | 0.00 | 0.00 | 42 | 1011.0 |
| 20260504195053 | 75 | 0 | 2.6 | 7.8 | 0.00 | 0.00 | 0.00 | 42 | 1011.0 |
| 20260504194555 | 74 | 314 | 0.0 | 5.2 | 0.00 | 0.00 | 0.00 | 40 | 1011.0 |
| 20260504194054 | 74 | 189 | 0.9 | 7.0 | 0.00 | 0.00 | 0.00 | 42 | 1011.0 |
| 20260504193552 | 74 | 0 | 1.7 | 7.0 | 0.00 | 0.00 | 0.00 | 45 | 1011.0 |
| 20260504193052 | 74 | 190 | 1.7 | 5.2 | 0.00 | 0.00 | 0.00 | 46 | 1011.0 |
| 20260504192551 | 73 | 161 | 0.9 | 4.3 | 0.00 | 0.00 | 0.00 | 45 | 1011.0 |
| 20260504192055 | 73 | 128 | 0.9 | 7.8 | 0.00 | 0.00 | 0.00 | 46 | 1011.0 |
| 20260504191601 | 73 | 5 | 1.7 | 7.8 | 0.00 | 0.00 | 0.00 | 43 | 1011.1 |
| 20260504191055 | 73 | 0 | 3.5 | 7.8 | 0.00 | 0.00 | 0.00 | 44 | 1011.2 |
| 20260504190555 | 72 | 198 | 1.7 | 6.1 | 0.00 | 0.00 | 0.00 | 46 | 1011.0 |
| 20260504190113 | 72 | 237 | 0.9 | 5.2 | 0.00 | 0.00 | 0.00 | 45 | 1011.1 |
| 20260504185558 | 72 | 249 | 1.7 | 6.1 | 0.00 | 0.00 | 0.00 | 48 | 1011.2 |
| 20260504185055 | 71 | 0 | 1.7 | 7.0 | 0.00 | 0.00 | 0.00 | 48 | 1011.3 |
| 20260504184617 | 71 | 0 | 0.9 | 7.0 | 0.00 | 0.00 | 0.00 | 51 | 1011.3 |
| 20260504184055 | 71 | 203 | 2.6 | 7.0 | 0.00 | 0.00 | 0.00 | 48 | 1011.3 |
| 20260504183556 | 70 | 176 | 2.6 | 6.1 | 0.00 | 0.00 | 0.00 | 48 | 1011.3 |
| 20260504183053 | 70 | 221 | 0.9 | 7.8 | 0.00 | 0.00 | 0.00 | 49 | 1011.3 |
| 20260504182555 | 70 | 173 | 2.6 | 7.8 | 0.00 | 0.00 | 0.00 | 50 | 1011.3 |
| 20260504182054 | 69 | 184 | 1.7 | 6.1 | 0.00 | 0.00 | 0.00 | 50 | 1011.3 |
| 20260504181557 | 69 | 0 | 1.7 | 7.8 | 0.00 | 0.00 | 0.00 | 51 | 1011.3 |
| 20260504181056 | 69 | 9 | 0.9 | 8.7 | 0.00 | 0.00 | 0.00 | 51 | 1011.2 |
| 20260504180559 | 68 | 198 | 2.6 | 8.7 | 0.00 | 0.00 | 0.00 | 52 | 1011.3 |
| 20260504180055 | 68 | 0 | 1.7 | 5.2 | 0.00 | 0.00 | 0.00 | 52 | 1011.3 |
| 20260504175555 | 68 | 188 | 0.9 | 5.2 | 0.00 | 0.00 | 0.00 | 53 | 1011.3 |
| 20260504175055 | 67 | 0 | 0.9 | 5.2 | 0.00 | 0.00 | 0.00 | 53 | 1011.3 |
| 20260504174555 | 67 | 148 | 1.7 | 4.3 | 0.00 | 0.00 | 0.00 | 54 | 1011.3 |
| 20260504174055 | 67 | 169 | 0.9 | 5.2 | 0.00 | 0.00 | 0.00 | 53 | 1011.2 |
| 20260504173554 | 67 | 288 | 1.7 | 5.2 | 0.00 | 0.00 | 0.00 | 53 | 1011.3 |
| 20260504173056 | 66 | 169 | 0.9 | 6.1 | 0.00 | 0.00 | 0.00 | 54 | 1011.3 |
| 20260504172555 | 66 | 0 | 1.7 | 6.1 | 0.00 | 0.00 | 0.00 | 58 | 1011.3 |
| 20260504172056 | 66 | 138 | 1.7 | 6.1 | 0.00 | 0.00 | 0.00 | 56 | 1011.3 |
| 20260504171602 | 65 | 277 | 1.7 | 5.2 | 0.00 | 0.00 | 0.00 | 57 | 1011.4 |
| 20260504171056 | 65 | 296 | 0.9 | 5.2 | 0.00 | 0.00 | 0.00 | 58 | 1011.4 |
| 20260504170555 | 65 | 197 | 0.9 | 5.2 | 0.00 | 0.00 | 0.00 | 58 | 1011.4 |
| 20260504160111 | 61 | 221 | 1.7 | 4.3 | 0.00 | 0.00 | 0.00 | 65 | 1011.1 |
| 20260504151053 | 53 | 210 | 0.0 | 1.7 | 0.00 | 0.00 | 0.00 | 86 | 1010.9 |
| 20260504150553 | 53 | 0 | 0.0 | 1.7 | 0.00 | 0.00 | 0.00 | 87 | 1010.7 |
| 20260504141055 | 50 | 0 | 0.0 | 0.0 | 0.00 | 0.00 | 0.00 | 86 | 1010.5 |
| 20260504140553 | 50 | 0 | 0.0 | 0.0 | 0.00 | 0.00 | 0.00 | 86 | 1010.5 |
| 20260504140109 | 50 | 0 | 0.0 | 0.0 | 0.00 | 0.00 | 0.00 | 86 | 1010.4 |
| 20260504130557 | 50 | 0 | 0.0 | 0.0 | 0.00 | 0.00 | 0.00 | 85 | 1010.1 |
| 20260504120110 | 51 | 0 | 0.0 | 0.0 | 0.00 | 0.00 | 0.00 | 83 | 1010.0 |
| 20260504110555 | 52 | 0 | 0.0 | 0.0 | 0.00 | 0.00 | 0.00 | 81 | 1010.0 |
| 20260504110104 | 52 | 0 | 0.0 | 0.0 | 0.00 | 0.00 | 0.00 | 81 | 1010.0 |
| 20260504100556 | 53 | 0 | 0.0 | 0.0 | 0.00 | 0.00 | 0.00 | 78 | 1009.8 |
| 20260504100105 | 53 | 0 | 0.0 | 0.0 | 0.00 | 0.00 | 0.00 | 79 | 1009.8 |
| 20260504081555 | 55 | 0 | 0.0 | 0.0 | 0.00 | 0.00 | 0.00 | 75 | 1010.0 |
| 20260504081054 | 55 | 0 | 0.0 | 0.0 | 0.00 | 0.00 | 0.00 | 75 | 1010.0 |
| 20260504080559 | 55 | 0 | 0.0 | 0.0 | 0.00 | 0.00 | 0.00 | 75 | 1010.0 |
| 20260504050555 | 64 | 0 | 0.0 | 0.0 | 0.00 | 0.00 | 0.00 | 61 | 1010.2 |
| 20260504050107 | 64 | 0 | 0.0 | 0.0 | 0.00 | 0.00 | 0.00 | 61 | 1010.2 |
| 20260504045555 | 65 | 0 | 0.0 | 0.0 | 0.00 | 0.00 | 0.00 | 59 | 1010.2 |
| 20260504045056 | 65 | 0 | 0.0 | 0.0 | 0.00 | 0.00 | 0.00 | 59 | 1010.1 |
| 20260504044554 | 65 | 0 | 0.0 | 0.0 | 0.00 | 0.00 | 0.00 | 57 | 1010.1 |
| 20260504044055 | 65 | 0 | 0.0 | 0.0 | 0.00 | 0.00 | 0.00 | 54 | 1010.1 |
| 20260504043555 | 66 | 0 | 0.0 | 0.0 | 0.00 | 0.00 | 0.00 | 51 | 1010.1 |
| 20260504043057 | 66 | 0 | 0.0 | 0.0 | 0.00 | 0.00 | 0.00 | 51 | 1010.0 |
| 20260504042555 | 66 | 0 | 0.0 | 2.6 | 0.00 | 0.00 | 0.00 | 49 | 1010.1 |
| 20260504042055 | 66 | 0 | 0.0 | 2.6 | 0.00 | 0.00 | 0.00 | 52 | 1010.1 |
| 20260504041552 | 66 | 0 | 0.9 | 2.6 | 0.00 | 0.00 | 0.00 | 51 | 1010.1 |
| 20260504041051 | 67 | 0 | 0.0 | 1.7 | 0.00 | 0.00 | 0.00 | 51 | 1010.1 |
| 20260504040558 | 67 | 0 | 0.0 | 1.7 | 0.00 | 0.00 | 0.00 | 50 | 1010.1 |
| 20260504035555 | 67 | 0 | 0.0 | 0.9 | 0.00 | 0.00 | 0.00 | 51 | 1009.9 |